[[{"header":{"parameterUnit":"m.s-1","parameterCategory":1,"la1":30.2991,"la2":30.254,"lo1":-89.0895,"lo2":-89.0444,"dy":0.0017,"dx":0.0017,"nx":28,"ny":28,"refTime":"2023-04-06T21:00:00:Z","depth":0,"parameterNumber":2,"parameterNumberName":"U-component_of_WINDS"},"data":[0,0,0,0,0,0,0,0,0,0,0,0,0,0,0,0,0,0,0,0,0,0,0,0,0,0,0,0,0,0,0,0,0,0,0,0,0,0,0,0,0,0,0,0,0,0,0,0,0,0,0,0,0,0,0,0,0,0,-2.9744,-2.9744,0,-2.9701,-2.9701,-2.97,-2.9628,-2.9627,-2.9626,-2.9624,-2.9581,-2.9581,-2.9581,0,0,0,0,0,0,0,0,0,0,0,0,0,-2.9764,-2.9764,-2.9744,-2.9744,-2.9743,-2.9702,-2.9701,-2.97,-2.9628,-2.9627,-2.9625,-2.9624,-2.9581,-2.9581,-2.9581,0,0,0,0,0,0,0,0,0,0,0,0,0,-2.9742,-2.9764,-2.9744,-2.9702,-2.9698,-2.9702,-2.9701,-2.97,-2.9629,-2.9627,-2.9625,-2.9623,-2.9581,-2.9581,-2.9582,-2.9623,0,0,-2.9582,-2.9582,0,0,0,0,0,0,0,0,-2.9743,-2.9741,-2.9709,-2.9705,-2.97,-2.9668,-2.9692,-2.9674,-2.9629,-2.9655,-2.9624,-2.9622,-2.9612,-2.9609,-2.9606,-2.9621,-2.9619,-2.9582,-2.9582,-2.9582,-2.9582,0,0,0,0,0,0,0,-2.9745,-2.9743,-2.9727,-2.9709,-2.9703,-2.9686,-2.968,-2.9689,-2.9645,-2.9653,-2.9647,-2.9643,-2.9609,-2.9606,-2.9604,-2.9618,-2.9582,-2.9582,-2.9582,-2.9582,-2.9665,-2.9667,0,0,0,0,0,0,-2.9753,-2.9745,-2.9729,-2.9726,-2.9717,-2.9687,-2.9681,-2.9681,-2.9645,-2.9638,-2.9645,-2.964,-2.9607,-2.9604,-2.9602,-2.9647,-2.9582,-2.9582,-2.9582,-2.9663,-2.9665,-2.9667,0,0,0,0,0,0,-2.9753,-2.9752,-2.973,-2.9734,-2.973,-2.9689,-2.9689,-2.9681,-2.9677,-2.9639,-2.9631,-2.9649,-2.9605,-2.9602,-2.9618,-2.9645,-2.9582,-2.9583,-2.966,-2.9663,-2.9666,-2.9738,0,0,0,0,0,0,-2.9754,-2.9753,-2.9768,-2.9735,-2.973,-2.9747,-2.9691,-2.9681,-2.9678,-2.9671,-2.9641,-2.9634,-2.9603,-2.9618,-2.9618,-2.9644,-2.9583,-2.9657,-2.9662,-2.9665,-2.9733,-2.9743,-2.9752,0,0,0,0,0,-2.9755,-2.979,-2.9769,-2.9767,-2.9748,-2.9748,-2.9745,-2.9708,-2.968,-2.9695,-2.9671,-2.9635,-2.9643,-2.9621,-2.962,-2.9646,-2.9656,-2.966,-2.9665,-2.9729,-2.9741,-2.9752,0,0,0,0,0,0,-2.9827,-2.9785,-2.9761,-2.9786,-2.9771,-2.9736,-2.9753,-2.9723,-2.9716,-2.971,-2.9665,-2.9659,-2.968,-2.9665,-2.9641,-2.9684,-2.9644,-2.9648,-2.9692,-2.9704,-2.9713,-2.9715,-2.9583,0,0,0,0,0,-2.9846,-2.985,-2.9813,-2.9839,-2.9832,-2.9795,-2.9794,-2.9766,-2.9749,-2.9743,-2.9719,-2.9705,-2.9703,-2.9703,-2.97,-2.9732,-2.9723,-2.9749,-2.9759,-2.9767,-2.9771,-2.9785,-2.9796,-2.9683,-2.9683,-2.9683,0,0,-2.9885,-2.9862,-2.9867,-2.9853,-2.9838,-2.9843,-2.979,-2.9797,-2.98,-2.9744,-2.9757,-2.974,-2.972,-2.9744,-2.9753,-2.9732,-2.9801,-2.9773,-2.978,-2.9779,-2.9791,-2.9802,-2.9811,-2.9686,-2.9685,-2.9685,0,0,-2.9957,-2.9941,-2.996,-2.9947,-2.9925,-2.99,-2.9905,-2.9875,-2.9861,-2.9873,-2.9831,-2.9834,-2.9833,-2.982,-2.9814,-2.9883,-2.985,-2.9884,-2.9932,-2.9947,-2.9956,-2.9963,-2.9986,-2.9995,-2.9888,-2.9888,-2.9889,0,-3.0008,-3.0013,-2.9974,-2.9984,-2.9978,-2.9928,-2.9947,-2.9936,-2.9915,-2.9912,-2.9889,-2.9886,-2.987,-2.9889,-2.9906,-2.9903,-2.9906,-2.9885,-2.9958,-2.9965,-2.9971,-2.9992,-3.0001,-2.9892,-2.9892,-2.9892,-2.9891,0,-3.0076,-3.008,-3.0099,-3.0079,-3.0076,-3.009,-3.0053,-3.0055,-3.0029,-3.0006,-3.0019,-2.9998,-2.9989,-2.9992,-2.9967,-3.0008,-2.9995,-2.9966,-2.9924,-2.9987,-3.0006,-3.0014,-2.9898,-2.9897,-2.9896,-2.9895,0,0,-3.019,-3.015,-3.0157,-3.0147,-3.012,-3.0123,-3.0135,-3.0126,-3.0128,-3.0116,-3.0124,-3.0125,-3.0098,-3.009,-3.0063,-3.0077,-3.0131,-3.0045,-3.0044,-3.006,-3.0173,-3.0194,-3.0204,-3.011,-3.0111,-3.0112,-3.0174,0,-3.0256,-3.0273,-3.0239,-3.0265,-3.0268,-3.0221,-3.0232,-3.0217,-3.0197,-3.0197,-3.0174,-3.0175,-3.0139,-3.0134,-3.0146,-3.0122,-3.0152,-3.0117,-3.0116,-3.0116,-3.012,-3.0214,-3.0236,-3.0295,-3.0181,-3.0183,-3.0183,0,-3.0333,-3.0324,-3.0351,-3.0322,-3.0322,-3.0332,-3.0321,-3.0322,-3.0304,-3.0288,-3.0281,-3.0249,-3.0259,-3.0221,-3.0234,-3.0211,-3.0209,-3.0197,-3.0198,-3.0195,-3.0152,-3.0211,-3.0313,-3.0321,-3.0195,-3.0194,-3.0193,0,-3.0412,-3.0407,-3.0421,-3.0415,-3.0382,-3.039,-3.0377,-3.0357,-3.0354,-3.0345,-3.0342,-3.0335,-3.033,-3.0325,-3.0292,-3.0268,-3.0309,-3.0268,-3.0295,-3.0296,-3.0303,-3.0303,-3.0404,-3.0307,-3.0306,-3.0306,-3.0306,0,-3.0487,-3.0504,-3.0456,-3.0465,-3.0483,-3.0444,-3.0464,-3.0446,-3.0429,-3.0433,-3.0393,-3.0398,-3.0356,-3.0356,-3.0331,-3.0345,-3.0344,-3.033,-3.0323,-3.0333,-3.0334,-3.0329,-3.0323,-3.0308,-3.0308,-3.0308,-3.0307,0,-3.0576,-3.0545,-3.0557,-3.0526,-3.0518,-3.0533,-3.0506,-3.0513,-3.0491,-3.0497,-3.0496,-3.0461,-3.046,-3.0427,-3.0419,-3.0402,-3.0425,-3.0411,-3.0431,-3.0426,-3.0453,-3.0451,-3.0553,-3.0564,-3.0462,-3.0463,-3.0464,0,-3.0624,-3.0637,-3.0607,-3.0607,-3.0595,-3.0596,-3.0593,-3.0556,-3.0553,-3.0534,-3.0543,-3.0539,-3.0533,-3.0533,-3.0506,-3.05,-3.0484,-3.0521,-3.0483,-3.0492,-3.0482,-3.0481,-3.0481,-3.0528,-3.0529,-3.053,-3.0531,0,-3.0713,-3.0697,-3.0694,-3.0685,-3.0682,-3.0673,-3.0662,-3.0664,-3.0623,-3.0623,-3.0621,-3.0617,-3.0608,-3.0604,-3.0593,-3.0579,-3.0548,-3.0544,-3.0549,-3.0558,-3.0568,-3.0561,-3.045,-3.0541,-3.054,-3.0539,-3.0539,-3.0538,-3.0782,-3.079,-3.077,-3.0768,-3.0755,-3.0746,-3.075,-3.0729,-3.0727,-3.0716,-3.0695,-3.0696,-3.0678,-3.066,-3.0649,-3.0649,-3.0631,-3.0639,-3.0641,-3.0643,-3.0647,-3.057,-3.0648,-3.0647,-3.0647,-3.0647,-3.0646,0,-3.0867,-3.0852,-3.085,-3.0835,-3.0833,-3.0805,-3.0792,-3.0791,-3.0793,-3.0779,-3.0774,-3.0771,-3.0767,-3.0741,-3.0733,-3.0739,-3.0724,-3.0738,-3.0736,-3.0733,-3.0666,-3.066,-3.0749,-3.0749,-3.0749,-3.0749,-3.0749,-3.0749,-3.0911,-3.0923,-3.0905,-3.0911,-3.0896,-3.0896,-3.089,-3.0881,-3.087,-3.0869,-3.0865,-3.0848,-3.0829,-3.082,-3.0814,-3.0807,-3.0805,-3.0823,-3.081,-3.0748,-3.0738,-3.0728,-3.0723,-3.0823,-3.0823,-3.0877,-3.0877,-3.0878]},{"header":{"parameterUnit":"m.s-1","parameterCategory":1,"la1":30.2991,"la2":30.254,"lo1":-89.0895,"lo2":-89.0444,"dy":0.0017,"dx":0.0017,"nx":28,"ny":28,"refTime":"2023-04-06T21:00:00:Z","depth":0,"parameterNumber":3,"parameterNumberName":"V-component_of_WINDS"},"data":[0,0,0,0,0,0,0,0,0,0,0,0,0,0,0,0,0,0,0,0,0,0,0,0,0,0,0,0,0,0,0,0,0,0,0,0,0,0,0,0,0,0,0,0,0,0,0,0,0,0,0,0,0,0,0,0,0,0,1.0506,1.0507,0,1.0544,1.0544,1.0545,1.0564,1.0564,1.0564,1.0564,1.0599,1.0599,1.06,0,0,0,0,0,0,0,0,0,0,0,0,0,1.0451,1.0452,1.0506,1.0507,1.0507,1.0544,1.0544,1.0545,1.0564,1.0564,1.0564,1.0564,1.0598,1.0599,1.06,0,0,0,0,0,0,0,0,0,0,0,0,0,1.048,1.0452,1.0506,1.0521,1.0523,1.0544,1.0544,1.0545,1.0564,1.0564,1.0564,1.0564,1.0598,1.0599,1.0601,1.0608,0,0,1.0605,1.0605,0,0,0,0,0,0,0,0,1.0478,1.0482,1.0519,1.052,1.0522,1.0549,1.0537,1.0566,1.0564,1.0548,1.0564,1.0564,1.0582,1.0585,1.0591,1.0609,1.0611,1.0605,1.0605,1.0606,1.0606,0,0,0,0,0,0,0,1.0476,1.0481,1.0521,1.0519,1.0522,1.0526,1.053,1.0543,1.0564,1.055,1.0551,1.0556,1.0583,1.059,1.0592,1.0611,1.0605,1.0606,1.0607,1.0607,1.064,1.064,0,0,0,0,0,0,1.0472,1.0479,1.052,1.0522,1.05,1.0527,1.0532,1.0541,1.0564,1.0568,1.0555,1.0556,1.0588,1.0591,1.0594,1.0606,1.0606,1.0607,1.0608,1.064,1.064,1.064,0,0,0,0,0,0,1.0471,1.0476,1.0518,1.0501,1.0507,1.0528,1.0538,1.0541,1.0548,1.0569,1.0572,1.0559,1.0588,1.0592,1.0605,1.0607,1.0608,1.0609,1.064,1.064,1.064,1.0628,0,0,0,0,0,0,1.0469,1.0475,1.0478,1.0501,1.0508,1.0529,1.0538,1.0542,1.0551,1.0553,1.0573,1.0576,1.0588,1.0603,1.0606,1.0609,1.061,1.064,1.064,1.064,1.0628,1.0628,1.0627,0,0,0,0,0,1.0467,1.0472,1.0478,1.0483,1.0512,1.0529,1.0533,1.0548,1.0551,1.0554,1.0568,1.0575,1.0606,1.0604,1.0608,1.0611,1.064,1.064,1.064,1.0629,1.0628,1.0627,0,0,0,0,0,0,1.0446,1.0475,1.0482,1.0494,1.051,1.0533,1.0537,1.0546,1.056,1.0561,1.0577,1.0582,1.0594,1.0604,1.0601,1.0621,1.0624,1.0625,1.0614,1.0613,1.0613,1.061,1.0611,0,0,0,0,0,1.0443,1.0456,1.048,1.0488,1.0496,1.0515,1.0523,1.0534,1.055,1.0556,1.057,1.0585,1.0598,1.0606,1.0619,1.063,1.0636,1.0634,1.0634,1.0633,1.0634,1.0643,1.0643,1.0641,1.0641,1.0641,0,0,1.0437,1.0454,1.046,1.0485,1.0498,1.0511,1.052,1.0532,1.0542,1.0557,1.0572,1.0583,1.06,1.0613,1.062,1.0622,1.0636,1.0633,1.0633,1.0634,1.0643,1.0643,1.0644,1.0641,1.0641,1.0641,0,0,1.0432,1.0445,1.0455,1.0469,1.049,1.0503,1.0506,1.0528,1.0537,1.0552,1.0565,1.0576,1.0598,1.0611,1.062,1.0624,1.0632,1.0628,1.0624,1.0633,1.0633,1.0634,1.0636,1.0637,1.0628,1.0628,1.0628,0,1.042,1.0441,1.0459,1.0472,1.0483,1.0499,1.051,1.0522,1.0545,1.0552,1.0555,1.0585,1.0597,1.0615,1.0617,1.0623,1.0627,1.0625,1.0632,1.0632,1.0633,1.0636,1.0637,1.0628,1.0628,1.0628,1.0628,0,1.0427,1.0441,1.0447,1.0471,1.0483,1.0494,1.0514,1.0524,1.0534,1.0548,1.0564,1.058,1.0598,1.0603,1.0612,1.0623,1.0624,1.0629,1.0632,1.0632,1.0636,1.0637,1.0627,1.0627,1.0627,1.0627,0,0,1.0407,1.0445,1.0446,1.0459,1.0485,1.0496,1.0509,1.0529,1.0537,1.0553,1.0565,1.0585,1.0591,1.0602,1.0613,1.062,1.0625,1.0625,1.0626,1.0625,1.064,1.0636,1.0637,1.0631,1.0631,1.0631,1.0639,0,1.0406,1.0432,1.045,1.0468,1.0483,1.0501,1.0512,1.0529,1.0543,1.0557,1.0571,1.0586,1.0592,1.0599,1.0607,1.0622,1.0628,1.0622,1.0642,1.0643,1.0638,1.0639,1.0634,1.0641,1.064,1.064,1.064,0,1.0408,1.0427,1.0447,1.0475,1.0481,1.0491,1.0513,1.0526,1.0546,1.0556,1.057,1.0582,1.0597,1.06,1.0622,1.0617,1.0627,1.0636,1.0636,1.0639,1.0641,1.0642,1.0643,1.0644,1.0642,1.0642,1.0642,0,1.0394,1.0424,1.0441,1.0451,1.0482,1.049,1.0503,1.0524,1.0536,1.0554,1.0562,1.0581,1.0591,1.0606,1.0623,1.0623,1.0644,1.0647,1.0652,1.0652,1.0655,1.0655,1.0658,1.066,1.066,1.066,1.066,0,1.0391,1.0403,1.0435,1.0445,1.046,1.0481,1.0495,1.051,1.0529,1.0543,1.0559,1.0571,1.0593,1.0608,1.0622,1.0639,1.0643,1.0651,1.0655,1.065,1.065,1.0657,1.0657,1.0661,1.066,1.066,1.066,0,1.0377,1.0398,1.0418,1.0448,1.0456,1.0466,1.0491,1.0502,1.0518,1.0536,1.0541,1.0565,1.0584,1.0604,1.0628,1.0638,1.0655,1.0659,1.0649,1.0651,1.0655,1.0655,1.0664,1.0667,1.0666,1.0666,1.0666,0,1.0374,1.0384,1.0416,1.0428,1.0442,1.0459,1.0472,1.0494,1.0507,1.0533,1.0542,1.0563,1.058,1.061,1.063,1.065,1.0655,1.0657,1.0658,1.0654,1.0657,1.0656,1.0658,1.0656,1.0656,1.0656,1.0656,0,1.0367,1.0378,1.0397,1.0421,1.0437,1.0456,1.0475,1.0483,1.0509,1.0523,1.0544,1.0558,1.0586,1.0607,1.063,1.0643,1.0654,1.0656,1.0659,1.0654,1.0648,1.0653,1.0648,1.0655,1.0656,1.0656,1.0656,1.0656,1.0359,1.037,1.0396,1.0417,1.0435,1.0454,1.0467,1.0486,1.0504,1.053,1.0541,1.0563,1.0586,1.0618,1.0632,1.0649,1.0652,1.0655,1.0656,1.0656,1.0656,1.0646,1.0653,1.0653,1.0653,1.0653,1.0653,0,1.0354,1.0372,1.0392,1.0421,1.0438,1.0449,1.0472,1.0486,1.0505,1.0526,1.0545,1.0571,1.0592,1.0614,1.0637,1.0647,1.0653,1.0652,1.0652,1.0655,1.0652,1.0648,1.0647,1.0647,1.0647,1.0647,1.0647,1.0647,1.0354,1.0374,1.0389,1.0419,1.0437,1.046,1.0473,1.049,1.0508,1.0536,1.0555,1.0571,1.0593,1.0618,1.0638,1.0645,1.0652,1.0651,1.0658,1.0655,1.0655,1.0655,1.0652,1.0652,1.0652,1.0661,1.0661,1.0661]}]]